Time,TemperatureF,DewpointF,PressureIn,WindDirection,WindDirectionDegrees,WindSpeedMPH,WindSpeedGustMPH,Humidity,HourlyPrecipIn,Conditions,Clouds,dailyrainin,SoftwareType,DateUTC
2013-03-25 00:00:00,38.7,35.7,30.10,NNE,13,0.0,0.0,89,0.00,,SCT110,0.00,VWS V14.01,2013-03-25 07:00:00,
2013-03-25 00:05:00,38.7,35.7,30.10,NNE,13,0.0,0.0,89,0.00,,FEW110,0.00,VWS V14.01,2013-03-25 07:05:00,
2013-03-25 00:10:00,38.7,36.0,30.10,NNE,13,0.0,0.0,90,0.00,,FEW110,0.00,VWS V14.01,2013-03-25 07:10:00,
2013-03-25 00:15:00,38.7,36.0,30.10,NNE,13,0.0,0.0,90,0.00,,FEW110,0.00,VWS V14.01,2013-03-25 07:15:00,
2013-03-25 00:20:00,38.8,36.1,30.09,NNE,13,0.0,0.0,90,0.00,,FEW110,0.00,VWS V14.01,2013-03-25 07:20:00,
2013-03-25 00:25:00,38.9,36.2,30.09,NNE,13,0.0,0.0,90,0.00,,BKN120,0.00,VWS V14.01,2013-03-25 07:25:00,
2013-03-25 00:30:00,39.0,36.0,30.09,NNE,27,0.0,0.0,89,0.00,,BKN120,0.00,VWS V14.01,2013-03-25 07:30:00,
2013-03-25 00:35:00,38.8,35.8,30.09,NNE,27,0.0,0.0,89,0.00,,BKN120,0.00,VWS V14.01,2013-03-25 07:35:00,
2013-03-25 00:40:00,38.6,35.6,30.09,NNE,27,0.0,0.0,89,0.00,,BKN120,0.00,VWS V14.01,2013-03-25 07:40:00,
2013-03-25 00:45:00,38.4,35.7,30.09,NNE,27,0.0,0.0,90,0.00,,OVC120,0.00,VWS V14.01,2013-03-25 07:45:00,
2013-03-25 00:50:00,38.1,35.4,30.09,NNE,27,0.0,0.0,90,0.00,,OVC120,0.00,VWS V14.01,2013-03-25 07:50:00,
2013-03-25 00:55:00,37.9,35.5,30.09,NNE,27,0.0,0.0,91,0.00,,OVC120,0.00,VWS V14.01,2013-03-25 07:55:00,
2013-03-25 01:00:00,37.6,35.2,30.09,NNE,26,0.0,0.0,91,0.00,,OVC120,0.00,VWS V14.01,2013-03-25 08:00:00,
2013-03-25 01:05:00,37.5,35.4,30.09,NNE,26,0.0,0.0,92,0.00,,SCT120,0.00,VWS V14.01,2013-03-25 08:05:00,
2013-03-25 01:10:00,37.3,35.2,30.09,NNE,26,0.0,0.0,92,0.00,,SCT120,0.00,VWS V14.01,2013-03-25 08:10:00,
2013-03-25 01:15:00,37.1,35.0,30.09,NNE,26,0.0,0.0,92,0.00,,SCT120,0.00,VWS V14.01,2013-03-25 08:15:00,
2013-03-25 01:20:00,36.9,34.8,30.09,NNE,26,0.0,0.0,92,0.00,,SCT120,0.00,VWS V14.01,2013-03-25 08:20:00,
2013-03-25 01:25:00,36.6,34.5,30.09,NNE,27,0.0,0.0,92,0.00,,CLR,0.00,VWS V14.01,2013-03-25 08:25:00,
2013-03-25 01:30:00,36.5,34.4,30.09,NNE,27,0.0,0.0,92,0.00,,CLR,0.00,VWS V14.01,2013-03-25 08:30:00,
2013-03-25 01:35:00,36.4,34.6,30.08,NNE,26,0.0,0.0,93,0.00,,CLR,0.00,VWS V14.01,2013-03-25 08:35:00,
2013-03-25 01:40:00,36.3,34.5,30.08,NNE,27,0.0,0.0,93,0.00,,CLR,0.00,VWS V14.01,2013-03-25 08:40:00,
2013-03-25 01:45:00,36.1,34.3,30.08,NNE,27,0.0,0.0,93,0.00,,CLR,0.00,VWS V14.01,2013-03-25 08:45:00,
2013-03-25 01:50:00,36.0,34.2,30.09,NNE,27,0.0,0.0,93,0.00,,CLR,0.00,VWS V14.01,2013-03-25 08:50:00,
2013-03-25 01:55:00,35.9,34.1,30.09,NNE,27,0.0,0.0,93,0.00,,CLR,0.00,VWS V14.01,2013-03-25 08:55:00,
2013-03-25 02:00:00,35.7,33.9,30.08,NNE,27,0.0,0.0,93,0.00,,CLR,0.00,VWS V14.01,2013-03-25 09:00:00,
2013-03-25 02:05:00,35.6,33.8,30.09,NNE,26,0.0,0.0,93,0.00,,CLR,0.00,VWS V14.01,2013-03-25 09:05:00,
2013-03-25 02:10:00,35.5,34.0,30.09,NNE,27,0.0,0.0,94,0.00,,CLR,0.00,VWS V14.01,2013-03-25 09:10:00,
2013-03-25 02:15:00,35.5,34.0,30.08,NNE,27,0.0,0.0,94,0.00,,CLR,0.00,VWS V14.01,2013-03-25 09:15:00,
2013-03-25 02:20:00,35.4,33.8,30.08,NNE,27,0.0,0.0,94,0.00,,CLR,0.00,VWS V14.01,2013-03-25 09:20:00,
2013-03-25 02:25:00,35.2,33.7,30.08,NNE,27,0.0,0.0,94,0.00,,CLR,0.00,VWS V14.01,2013-03-25 09:25:00,
2013-03-25 02:30:00,35.1,33.5,30.08,NNE,26,0.0,0.0,94,0.00,,CLR,0.00,VWS V14.01,2013-03-25 09:30:00,
2013-03-25 02:35:00,35.2,33.7,30.08,NNE,27,0.0,0.0,94,0.00,,CLR,0.00,VWS V14.01,2013-03-25 09:35:00,
2013-03-25 02:40:00,35.1,33.5,30.08,NNE,26,0.0,0.0,94,0.00,,CLR,0.00,VWS V14.01,2013-03-25 09:40:00,
2013-03-25 02:45:00,35.1,33.5,30.08,NNE,26,0.0,0.0,94,0.00,,CLR,0.00,VWS V14.01,2013-03-25 09:45:00,
2013-03-25 02:50:00,35.1,33.5,30.08,NNE,26,0.0,0.0,94,0.00,,CLR,0.00,VWS V14.01,2013-03-25 09:50:00,
2013-03-25 02:55:00,35.2,33.7,30.08,NNE,27,0.0,0.0,94,0.00,,CLR,0.00,VWS V14.01,2013-03-25 09:55:00,
2013-03-25 03:00:00,35.3,34.0,30.08,NNE,26,0.0,0.0,95,0.00,,CLR,0.00,VWS V14.01,2013-03-25 10:00:00,
2013-03-25 03:05:00,35.5,34.2,30.08,NNE,27,0.0,0.0,95,0.00,,CLR,0.00,VWS V14.01,2013-03-25 10:05:00,
2013-03-25 03:10:00,35.7,34.4,30.08,NNE,27,0.0,0.0,95,0.00,,CLR,0.00,VWS V14.01,2013-03-25 10:10:00,
2013-03-25 03:15:00,35.7,34.2,30.08,NNE,27,0.0,0.0,94,0.00,,CLR,0.00,VWS V14.01,2013-03-25 10:15:00,
2013-03-25 03:20:00,35.7,34.2,30.08,NNE,26,0.0,0.0,94,0.00,,CLR,0.00,VWS V14.01,2013-03-25 10:20:00,
2013-03-25 03:25:00,35.8,34.2,30.07,NNE,27,0.0,0.0,94,0.00,,CLR,0.00,VWS V14.01,2013-03-25 10:25:00,
2013-03-25 03:30:00,35.9,34.3,30.08,NNE,27,0.0,0.0,94,0.00,,CLR,0.00,VWS V14.01,2013-03-25 10:30:00,
2013-03-25 03:35:00,35.9,34.3,30.07,NNE,26,0.0,0.0,94,0.00,,CLR,0.00,VWS V14.01,2013-03-25 10:35:00,
2013-03-25 03:40:00,36.0,34.4,30.07,NNE,26,0.0,0.0,94,0.00,,CLR,0.00,VWS V14.01,2013-03-25 10:40:00,
2013-03-25 03:45:00,36.0,34.4,30.07,NNE,26,0.0,0.0,94,0.00,,CLR,0.00,VWS V14.01,2013-03-25 10:45:00,
2013-03-25 03:50:00,36.0,34.4,30.07,NNE,27,0.0,0.0,94,0.00,,CLR,0.00,VWS V14.01,2013-03-25 10:50:00,
2013-03-25 03:55:00,36.0,34.4,30.07,NNE,26,0.0,0.0,94,0.00,,CLR,0.00,VWS V14.01,2013-03-25 10:55:00,
2013-03-25 04:00:00,36.1,34.5,30.07,NNE,26,0.0,0.0,94,0.00,,CLR,0.00,VWS V14.01,2013-03-25 11:00:00,
2013-03-25 04:05:00,36.3,34.7,30.07,NNE,27,0.0,0.0,94,0.00,,CLR,0.00,VWS V14.01,2013-03-25 11:05:00,
2013-03-25 04:10:00,36.3,34.7,30.07,NNE,27,0.0,0.0,94,0.00,,CLR,0.00,VWS V14.01,2013-03-25 11:10:00,
2013-03-25 04:15:00,36.3,34.7,30.07,NNE,26,0.0,0.0,94,0.00,,CLR,0.00,VWS V14.01,2013-03-25 11:15:00,
2013-03-25 04:20:00,36.3,34.7,30.07,NNE,27,0.0,0.0,94,0.00,,CLR,0.00,VWS V14.01,2013-03-25 11:20:00,
2013-03-25 04:25:00,36.3,34.7,30.07,NNE,26,0.0,0.0,94,0.00,,FEW120,0.00,VWS V14.01,2013-03-25 11:25:00,
2013-03-25 04:30:00,36.3,34.7,30.06,NNE,27,0.0,0.0,94,0.00,,FEW120,0.00,VWS V14.01,2013-03-25 11:30:00,
2013-03-25 04:35:00,36.2,34.6,30.06,NNE,27,0.0,0.0,94,0.00,,FEW120,0.00,VWS V14.01,2013-03-25 11:35:00,
2013-03-25 04:40:00,36.2,34.6,30.06,NNE,27,0.0,0.0,94,0.00,,FEW120,0.00,VWS V14.01,2013-03-25 11:40:00,
2013-03-25 04:45:00,36.2,34.6,30.06,NNE,26,0.0,0.0,94,0.00,,FEW120,0.00,VWS V14.01,2013-03-25 11:45:00,
2013-03-25 04:50:00,36.2,34.6,30.06,NNE,27,0.0,0.0,94,0.00,,FEW120,0.00,VWS V14.01,2013-03-25 11:50:00,
2013-03-25 04:55:00,36.3,34.7,30.06,NNE,27,0.0,0.0,94,0.00,,FEW120,0.00,VWS V14.01,2013-03-25 11:55:00,
2013-03-25 05:00:00,36.3,34.7,30.06,NNE,27,0.0,0.0,94,0.00,,FEW120,0.00,VWS V14.01,2013-03-25 12:00:00,
2013-03-25 05:05:00,36.3,34.7,30.06,NNE,27,0.0,0.0,94,0.00,,CLR,0.00,VWS V14.01,2013-03-25 12:05:00,
2013-03-25 05:10:00,36.3,34.7,30.06,NNE,26,0.0,0.0,94,0.00,,CLR,0.00,VWS V14.01,2013-03-25 12:10:00,
2013-03-25 05:15:00,36.4,34.8,30.06,NNE,27,0.0,0.0,94,0.00,,CLR,0.00,VWS V14.01,2013-03-25 12:15:00,
2013-03-25 05:20:00,36.4,34.8,30.06,NNE,27,0.0,0.0,94,0.00,,CLR,0.00,VWS V14.01,2013-03-25 12:20:00,
2013-03-25 05:25:00,36.4,34.8,30.06,NNE,26,0.0,0.0,94,0.00,,SCT120,0.00,VWS V14.01,2013-03-25 12:25:00,
2013-03-25 05:30:00,36.5,35.2,30.06,NNE,27,0.0,0.0,95,0.00,,SCT120,0.00,VWS V14.01,2013-03-25 12:30:00,
2013-03-25 05:35:00,36.5,35.2,30.07,NNE,27,0.0,0.0,95,0.00,,SCT120,0.00,VWS V14.01,2013-03-25 12:35:00,
2013-03-25 05:40:00,36.7,35.4,30.07,NNE,27,0.0,0.0,95,0.00,,SCT120,0.00,VWS V14.01,2013-03-25 12:40:00,
2013-03-25 05:45:00,36.7,35.1,30.07,NNE,27,0.0,0.0,94,0.00,,OVC110,0.00,VWS V14.01,2013-03-25 12:45:00,
2013-03-25 05:50:00,36.8,35.2,30.06,NNE,27,0.0,0.0,94,0.00,,OVC110,0.00,VWS V14.01,2013-03-25 12:50:00,
2013-03-25 05:55:00,36.8,35.2,30.06,NNE,26,0.0,0.0,94,0.00,,OVC110,0.00,VWS V14.01,2013-03-25 12:55:00,
2013-03-25 06:00:00,36.9,35.3,30.07,NNE,27,0.0,0.0,94,0.00,,OVC110,0.00,VWS V14.01,2013-03-25 13:00:00,
2013-03-25 06:05:00,36.9,35.3,30.07,NNE,27,0.0,0.0,94,0.00,,OVC100,0.00,VWS V14.01,2013-03-25 13:05:00,
2013-03-25 06:10:00,36.9,35.3,30.06,NNE,27,0.0,0.0,94,0.00,,OVC100,0.00,VWS V14.01,2013-03-25 13:10:00,
2013-03-25 06:15:00,36.9,35.3,30.06,NNE,26,0.0,0.0,94,0.00,,OVC100,0.00,VWS V14.01,2013-03-25 13:15:00,
2013-03-25 06:20:00,37.0,35.4,30.06,NNE,26,0.0,0.0,94,0.00,,OVC100,0.00,VWS V14.01,2013-03-25 13:20:00,
2013-03-25 06:25:00,37.1,35.5,30.06,NNE,26,0.0,0.0,94,0.00,,OVC090,0.00,VWS V14.01,2013-03-25 13:25:00,
2013-03-25 06:30:00,37.1,35.5,30.06,NNE,26,0.0,0.0,94,0.00,,OVC090,0.00,VWS V14.01,2013-03-25 13:30:00,
2013-03-25 06:35:00,37.1,35.5,30.06,NNE,26,0.0,0.0,94,0.00,,OVC090,0.00,VWS V14.01,2013-03-25 13:35:00,
2013-03-25 06:40:00,37.2,35.6,30.06,NNE,26,0.0,0.0,94,0.00,,OVC090,0.00,VWS V14.01,2013-03-25 13:40:00,
2013-03-25 06:45:00,37.2,35.6,30.06,NNE,28,0.0,0.0,94,0.00,,OVC090,0.00,VWS V14.01,2013-03-25 13:45:00,
2013-03-25 06:50:00,37.3,35.7,30.06,NNE,28,0.0,0.0,94,0.00,,OVC090,0.00,VWS V14.01,2013-03-25 13:50:00,
2013-03-25 06:55:00,37.4,36.1,30.06,NNE,28,0.0,0.0,95,0.00,,OVC090,0.00,VWS V14.01,2013-03-25 13:55:00,
2013-03-25 07:00:00,37.5,36.2,30.06,NNE,28,0.0,0.0,95,0.00,,OVC090,0.00,VWS V14.01,2013-03-25 14:00:00,
2013-03-25 07:05:00,37.6,36.3,30.05,NNE,28,0.0,0.0,95,0.00,,OVC090,0.00,VWS V14.01,2013-03-25 14:05:00,
2013-03-25 07:10:00,37.7,36.1,30.06,NNE,28,0.0,0.0,94,0.00,,OVC090,0.00,VWS V14.01,2013-03-25 14:10:00,
2013-03-25 07:15:00,37.8,36.5,30.06,NNE,31,0.0,0.0,95,0.00,,OVC090,0.00,VWS V14.01,2013-03-25 14:15:00,
2013-03-25 07:20:00,37.9,36.3,30.06,NNE,31,0.0,0.0,94,0.00,,OVC090,0.00,VWS V14.01,2013-03-25 14:20:00,
2013-03-25 07:25:00,38.0,36.4,30.06,NNE,31,0.0,0.0,94,0.00,,OVC085,0.00,VWS V14.01,2013-03-25 14:25:00,
2013-03-25 07:30:00,38.1,36.5,30.06,NNE,31,0.0,0.0,94,0.00,,OVC085,0.00,VWS V14.01,2013-03-25 14:30:00,
2013-03-25 07:35:00,38.1,36.5,30.06,NNE,31,0.0,0.0,94,0.00,,OVC085,0.00,VWS V14.01,2013-03-25 14:35:00,
2013-03-25 07:40:00,38.2,36.6,30.06,NNE,31,0.0,0.0,94,0.00,,OVC085,0.00,VWS V14.01,2013-03-25 14:40:00,
2013-03-25 07:45:00,38.2,36.6,30.06,NNE,31,0.0,0.0,94,0.00,,OVC085,0.00,VWS V14.01,2013-03-25 14:45:00,
2013-03-25 07:50:00,38.3,36.7,30.06,NNE,31,0.0,0.0,94,0.00,,OVC085,0.00,VWS V14.01,2013-03-25 14:50:00,
2013-03-25 07:55:00,38.4,36.8,30.06,NNE,31,0.0,0.0,94,0.00,,OVC070,0.00,VWS V14.01,2013-03-25 14:55:00,
2013-03-25 08:00:00,38.5,36.9,30.06,NNE,31,0.0,0.0,94,0.00,,OVC070,0.00,VWS V14.01,2013-03-25 15:00:00,
2013-03-25 08:05:00,38.8,37.2,30.06,NNE,31,0.0,0.0,94,0.00,,OVC070,0.00,VWS V14.01,2013-03-25 15:05:00,
2013-03-25 08:10:00,39.0,37.4,30.05,NNE,31,0.0,0.0,94,0.00,,OVC070,0.00,VWS V14.01,2013-03-25 15:10:00,
2013-03-25 08:15:00,39.2,37.6,30.05,NNE,31,0.0,0.0,94,0.00,,OVC070,0.00,VWS V14.01,2013-03-25 15:15:00,
2013-03-25 08:20:00,39.4,37.8,30.05,NNE,31,0.0,0.0,94,0.00,,OVC070,0.00,VWS V14.01,2013-03-25 15:20:00,
2013-03-25 08:25:00,39.6,38.0,30.05,NNE,31,0.0,0.0,94,0.00,,OVC070,0.00,VWS V14.01,2013-03-25 15:25:00,
2013-03-25 08:30:00,39.8,38.0,30.05,NNE,31,0.0,0.0,93,0.00,,OVC070,0.00,VWS V14.01,2013-03-25 15:30:00,
2013-03-25 08:35:00,40.1,38.2,30.05,NNE,31,0.0,0.0,93,0.00,,OVC070,0.00,VWS V14.01,2013-03-25 15:35:00,
2013-03-25 08:40:00,40.5,38.9,30.05,NNE,31,0.0,0.0,94,0.00,,OVC070,0.00,VWS V14.01,2013-03-25 15:40:00,
2013-03-25 08:45:00,40.7,38.8,30.05,NNE,31,0.0,0.0,93,0.00,,BKN100,0.00,VWS V14.01,2013-03-25 15:45:00,
2013-03-25 08:50:00,41.0,39.1,30.05,NNE,31,0.0,0.0,93,0.00,,BKN100,0.00,VWS V14.01,2013-03-25 15:50:00,
2013-03-25 08:55:00,41.2,39.1,30.04,NNE,31,0.0,0.0,92,0.00,,BKN100,0.00,VWS V14.01,2013-03-25 15:55:00,
2013-03-25 09:00:00,41.6,39.5,30.04,NNE,31,0.0,0.0,92,0.00,,BKN100,0.00,VWS V14.01,2013-03-25 16:00:00,
2013-03-25 09:05:00,41.9,39.8,30.04,NE,51,0.0,0.0,92,0.00,,OVC095,0.00,VWS V14.01,2013-03-25 16:05:00,
2013-03-25 09:10:00,42.3,40.2,30.04,NE,51,0.0,0.0,92,0.00,,OVC095,0.00,VWS V14.01,2013-03-25 16:10:00,
2013-03-25 09:15:00,42.7,40.3,30.04,NE,51,0.0,0.0,91,0.00,,OVC095,0.00,VWS V14.01,2013-03-25 16:15:00,
2013-03-25 09:20:00,43.3,40.6,30.04,NE,51,1.0,0.0,90,0.00,,OVC095,0.00,VWS V14.01,2013-03-25 16:20:00,
2013-03-25 09:25:00,43.7,40.4,30.04,NNE,26,0.0,0.0,88,0.00,,OVC080,0.00,VWS V14.01,2013-03-25 16:25:00,
2013-03-25 09:30:00,44.1,39.9,30.04,NE,34,0.0,0.0,85,0.00,,OVC080,0.00,VWS V14.01,2013-03-25 16:30:00,
2013-03-25 09:35:00,44.5,40.0,30.04,East,87,2.0,0.0,84,0.00,,OVC080,0.00,VWS V14.01,2013-03-25 16:35:00,
2013-03-25 09:40:00,44.6,40.4,30.04,NE,47,1.0,0.0,85,0.00,,OVC080,0.00,VWS V14.01,2013-03-25 16:40:00,
2013-03-25 09:45:00,44.9,40.4,30.04,ENE,76,1.0,0.0,84,0.00,,BKN080,0.00,VWS V14.01,2013-03-25 16:45:00,
2013-03-25 09:50:00,44.9,40.1,30.04,ENE,61,1.0,0.0,83,0.00,,BKN080,0.00,VWS V14.01,2013-03-25 16:50:00,
2013-03-25 09:55:00,45.3,40.5,30.03,NE,38,1.0,0.0,83,0.00,,BKN080,0.00,VWS V14.01,2013-03-25 16:55:00,
2013-03-25 10:00:00,45.8,40.0,30.03,NE,38,0.0,0.0,80,0.00,,BKN080,0.00,VWS V14.01,2013-03-25 17:00:00,
2013-03-25 10:05:00,46.1,40.0,30.03,NE,44,0.0,0.0,79,0.00,,CLR,0.00,VWS V14.01,2013-03-25 17:05:00,
2013-03-25 10:10:00,46.8,40.3,30.03,NE,44,0.0,0.0,78,0.00,,CLR,0.00,VWS V14.01,2013-03-25 17:10:00,
2013-03-25 10:15:00,47.5,40.0,30.02,ENE,67,0.0,0.0,75,0.00,,CLR,0.00,VWS V14.01,2013-03-25 17:15:00,
2013-03-25 10:20:00,47.8,40.6,30.03,NE,42,1.0,0.0,76,0.00,,CLR,0.00,VWS V14.01,2013-03-25 17:20:00,
2013-03-25 10:25:00,47.9,40.4,30.03,ENE,67,0.0,0.0,75,0.00,,CLR,0.00,VWS V14.01,2013-03-25 17:25:00,
2013-03-25 10:30:00,47.7,40.2,30.02,ENE,63,3.0,0.0,75,0.00,,CLR,0.00,VWS V14.01,2013-03-25 17:30:00,
2013-03-25 10:35:00,47.5,40.0,30.03,NNE,33,2.0,0.0,75,0.00,,CLR,0.00,VWS V14.01,2013-03-25 17:35:00,
2013-03-25 10:40:00,47.5,39.6,30.02,ENE,60,1.0,0.0,74,0.00,,CLR,0.00,VWS V14.01,2013-03-25 17:40:00,
2013-03-25 10:45:00,47.7,39.8,30.02,East,101,0.0,0.0,74,0.00,,CLR,0.00,VWS V14.01,2013-03-25 17:45:00,
2013-03-25 10:50:00,48.4,40.5,30.02,East,101,0.0,0.0,74,0.00,,CLR,0.00,VWS V14.01,2013-03-25 17:50:00,
2013-03-25 10:55:00,49.5,40.9,30.02,NW,310,0.0,0.0,72,0.00,,CLR,0.00,VWS V14.01,2013-03-25 17:55:00,
2013-03-25 11:00:00,50.5,40.7,30.02,NNE,16,0.0,0.0,69,0.00,,CLR,0.00,VWS V14.01,2013-03-25 18:00:00,
2013-03-25 11:05:00,51.6,40.6,30.02,NNW,329,1.0,0.0,66,0.00,,CLR,0.00,VWS V14.01,2013-03-25 18:05:00,
2013-03-25 11:10:00,52.1,40.3,30.01,NE,44,0.0,0.0,64,0.00,,CLR,0.00,VWS V14.01,2013-03-25 18:10:00,
2013-03-25 11:15:00,52.7,41.7,30.01,East,96,1.0,0.0,66,0.00,,CLR,0.00,VWS V14.01,2013-03-25 18:15:00,
2013-03-25 11:20:00,53.2,40.5,30.01,East,94,1.0,0.0,62,0.00,,CLR,0.00,VWS V14.01,2013-03-25 18:20:00,
2013-03-25 11:25:00,53.0,40.3,30.01,South,172,0.0,0.0,62,0.00,,CLR,0.00,VWS V14.01,2013-03-25 18:25:00,
2013-03-25 11:30:00,53.4,39.9,30.01,ENE,76,1.0,0.0,60,0.00,,CLR,0.00,VWS V14.01,2013-03-25 18:30:00,
2013-03-25 11:35:00,53.2,39.7,30.00,ESE,104,0.0,0.0,60,0.00,,CLR,0.00,VWS V14.01,2013-03-25 18:35:00,
2013-03-25 11:40:00,52.9,39.8,30.00,ESE,113,0.0,0.0,61,0.00,,CLR,0.00,VWS V14.01,2013-03-25 18:40:00,
2013-03-25 11:45:00,53.6,39.6,30.00,NE,43,1.0,0.0,59,0.00,,CLR,0.00,VWS V14.01,2013-03-25 18:45:00,
2013-03-25 11:50:00,54.3,39.8,30.00,NE,49,3.0,0.0,58,0.00,,CLR,0.00,VWS V14.01,2013-03-25 18:50:00,
2013-03-25 11:55:00,54.9,39.5,30.00,NNE,28,1.0,0.0,56,0.00,,CLR,0.00,VWS V14.01,2013-03-25 18:55:00,
2013-03-25 12:00:00,55.4,39.0,30.00,South,173,1.0,0.0,54,0.00,,CLR,0.00,VWS V14.01,2013-03-25 19:00:00,
2013-03-25 12:05:00,55.5,38.7,30.00,ESE,107,1.0,0.0,53,0.00,,FEW095,0.00,VWS V14.01,2013-03-25 19:05:00,
2013-03-25 12:10:00,56.4,40.9,29.99,ESE,107,0.0,0.0,56,0.00,,FEW095,0.00,VWS V14.01,2013-03-25 19:10:00,
2013-03-25 12:15:00,56.6,38.7,29.99,SW,219,2.0,0.0,51,0.00,,FEW095,0.00,VWS V14.01,2013-03-25 19:15:00,
2013-03-25 12:20:00,56.8,39.9,29.99,NNE,13,3.0,0.0,53,0.00,,FEW095,0.00,VWS V14.01,2013-03-25 19:20:00,
2013-03-25 12:25:00,57.3,39.3,29.98,WNW,286,0.0,0.0,51,0.00,,BKN095,0.00,VWS V14.01,2013-03-25 19:25:00,
2013-03-25 12:30:00,57.7,38.7,29.98,SSW,198,0.0,0.0,49,0.00,,BKN095,0.00,VWS V14.01,2013-03-25 19:30:00,
2013-03-25 12:35:00,57.2,38.8,29.98,WSW,245,2.0,0.0,50,0.00,,BKN095,0.00,VWS V14.01,2013-03-25 19:35:00,
2013-03-25 12:40:00,57.0,39.1,29.98,SSW,200,0.0,0.0,51,0.00,,BKN095,0.00,VWS V14.01,2013-03-25 19:40:00,
2013-03-25 12:45:00,57.5,39.0,29.97,North,350,1.0,0.0,50,0.00,,FEW095,0.00,VWS V14.01,2013-03-25 19:45:00,
2013-03-25 12:50:00,58.2,38.6,29.97,NE,46,3.0,0.0,48,0.00,,FEW095,0.00,VWS V14.01,2013-03-25 19:50:00,
2013-03-25 12:55:00,58.5,38.4,29.97,NNW,332,1.0,0.0,47,0.00,,FEW095,0.00,VWS V14.01,2013-03-25 19:55:00,
2013-03-25 13:00:00,59.1,39.5,29.97,NNW,334,5.0,0.0,48,0.00,,FEW095,0.00,VWS V14.01,2013-03-25 20:00:00,
2013-03-25 13:05:00,59.5,38.7,29.96,East,80,1.0,0.0,46,0.00,,CLR,0.00,VWS V14.01,2013-03-25 20:05:00,
2013-03-25 13:10:00,59.3,38.0,29.96,East,101,2.0,0.0,45,0.00,,CLR,0.00,VWS V14.01,2013-03-25 20:10:00,
2013-03-25 13:15:00,59.6,38.8,29.96,ESE,105,0.0,0.0,46,0.00,,CLR,0.00,VWS V14.01,2013-03-25 20:15:00,
2013-03-25 13:20:00,60.3,40.0,29.96,NE,38,6.0,0.0,47,0.00,,CLR,0.00,VWS V14.01,2013-03-25 20:20:00,
2013-03-25 13:25:00,60.6,39.2,29.96,ESE,106,2.0,0.0,45,0.00,,CLR,0.00,VWS V14.01,2013-03-25 20:25:00,
2013-03-25 13:30:00,60.3,38.3,29.96,East,87,5.0,0.0,44,0.00,,CLR,0.00,VWS V14.01,2013-03-25 20:30:00,
2013-03-25 13:35:00,60.3,38.3,29.96,NNW,334,6.0,0.0,44,0.00,,CLR,0.00,VWS V14.01,2013-03-25 20:35:00,
2013-03-25 13:40:00,60.4,37.8,29.95,NE,56,5.0,0.0,43,0.00,,CLR,0.00,VWS V14.01,2013-03-25 20:40:00,
2013-03-25 13:45:00,60.2,37.6,29.95,ENE,60,2.0,0.0,43,0.00,,BKN120,0.00,VWS V14.01,2013-03-25 20:45:00,
2013-03-25 13:50:00,60.5,38.5,29.95,ENE,71,2.0,0.0,44,0.00,,BKN120,0.00,VWS V14.01,2013-03-25 20:50:00,
2013-03-25 13:55:00,60.8,38.2,29.95,ESE,114,2.0,0.0,43,0.00,,BKN120,0.00,VWS V14.01,2013-03-25 20:55:00,
2013-03-25 14:00:00,60.8,38.2,29.95,NE,35,2.0,0.0,43,0.00,,BKN120,0.00,VWS V14.01,2013-03-25 21:00:00,
2013-03-25 14:05:00,61.4,38.1,29.95,East,96,0.0,0.0,42,0.00,,BKN120,0.00,VWS V14.01,2013-03-25 21:05:00,
2013-03-25 14:10:00,61.8,38.5,29.95,SW,230,1.0,0.0,42,0.00,,BKN120,0.00,VWS V14.01,2013-03-25 21:10:00,
2013-03-25 14:15:00,62.0,38.7,29.94,ENE,60,3.0,0.0,42,0.00,,BKN120,0.00,VWS V14.01,2013-03-25 21:15:00,
2013-03-25 14:20:00,62.5,38.5,29.94,NE,34,3.0,0.0,41,0.00,,BKN120,0.00,VWS V14.01,2013-03-25 21:20:00,
2013-03-25 14:25:00,62.8,38.8,29.94,ENE,60,2.0,0.0,41,0.00,,BKN120,0.00,VWS V14.01,2013-03-25 21:25:00,
2013-03-25 14:30:00,63.1,39.7,29.94,WNW,292,2.0,0.0,42,0.00,,BKN120,0.00,VWS V14.01,2013-03-25 21:30:00,
2013-03-25 14:35:00,63.7,39.0,29.93,NW,323,1.0,0.0,40,0.00,,BKN120,0.00,VWS V14.01,2013-03-25 21:35:00,
2013-03-25 14:40:00,64.4,40.2,29.93,NE,55,2.0,0.0,41,0.00,,BKN120,0.00,VWS V14.01,2013-03-25 21:40:00,
2013-03-25 14:45:00,63.9,38.5,29.93,NW,306,1.0,0.0,39,0.00,,BKN120,0.00,VWS V14.01,2013-03-25 21:45:00,
2013-03-25 14:50:00,63.9,39.8,29.93,NW,310,1.0,0.0,41,0.00,,BKN120,0.00,VWS V14.01,2013-03-25 21:50:00,
2013-03-25 14:55:00,63.4,38.7,29.93,NE,36,2.0,0.0,40,0.00,,BKN120,0.00,VWS V14.01,2013-03-25 21:55:00,
2013-03-25 15:00:00,62.9,38.2,29.93,NE,56,4.0,0.0,40,0.00,,BKN120,0.00,VWS V14.01,2013-03-25 22:00:00,
2013-03-25 15:05:00,62.7,39.3,29.93,ENE,63,2.0,0.0,42,0.00,,OVC120,0.00,VWS V14.01,2013-03-25 22:05:00,
2013-03-25 15:10:00,62.8,38.1,29.93,ESE,110,2.0,0.0,40,0.00,,OVC120,0.00,VWS V14.01,2013-03-25 22:10:00,
2013-03-25 15:15:00,62.3,38.9,29.92,ESE,112,3.0,0.0,42,0.00,,OVC120,0.00,VWS V14.01,2013-03-25 22:15:00,
2013-03-25 15:20:00,61.9,38.0,29.92,ESE,111,1.0,0.0,41,0.00,,OVC120,0.00,VWS V14.01,2013-03-25 22:20:00,
2013-03-25 15:25:00,61.9,38.6,29.92,ESE,111,0.0,0.0,42,0.00,,BKN120,0.00,VWS V14.01,2013-03-25 22:25:00,
2013-03-25 15:30:00,62.1,39.4,29.92,SSE,153,0.0,0.0,43,0.00,,BKN120,0.00,VWS V14.01,2013-03-25 22:30:00,
2013-03-25 15:35:00,62.8,40.0,29.92,SE,141,0.0,0.0,43,0.00,,BKN120,0.00,VWS V14.01,2013-03-25 22:35:00,
2013-03-25 15:40:00,62.9,39.5,29.92,SW,219,4.0,0.0,42,0.00,,BKN120,0.00,VWS V14.01,2013-03-25 22:40:00,
2013-03-25 15:45:00,62.5,39.1,29.92,ESE,116,2.0,0.0,42,0.00,,BKN110,0.00,VWS V14.01,2013-03-25 22:45:00,
2013-03-25 15:50:00,62.5,37.9,29.92,East,86,2.0,0.0,40,0.00,,BKN110,0.00,VWS V14.01,2013-03-25 22:50:00,
2013-03-25 15:55:00,63.4,40.5,29.91,East,82,0.0,0.0,43,0.00,,BKN110,0.00,VWS V14.01,2013-03-25 22:55:00,
2013-03-25 16:00:00,63.7,40.2,29.91,WSW,254,2.0,0.0,42,0.00,,BKN110,0.00,VWS V14.01,2013-03-25 23:00:00,
2013-03-25 16:05:00,63.6,40.1,29.91,SSW,204,0.0,0.0,42,0.00,,BKN100,0.00,VWS V14.01,2013-03-25 23:05:00,
2013-03-25 16:10:00,63.8,39.7,29.91,East,100,0.0,0.0,41,0.00,,BKN100,0.00,VWS V14.01,2013-03-25 23:10:00,
2013-03-25 16:15:00,64.3,40.1,29.91,SSE,157,1.0,0.0,41,0.00,,BKN100,0.00,VWS V14.01,2013-03-25 23:15:00,
2013-03-25 16:20:00,64.2,38.8,29.91,SW,236,4.0,0.0,39,0.00,,BKN100,0.00,VWS V14.01,2013-03-25 23:20:00,
2013-03-25 16:25:00,63.7,41.4,29.91,SW,230,2.0,0.0,44,0.00,,FEW120,0.00,VWS V14.01,2013-03-25 23:25:00,
2013-03-25 16:29:00,63.5,38.8,29.91,East,88,1.0,0.0,40,0.00,,FEW120,0.00,VWS V14.01,2013-03-25 23:29:00,
2013-03-25 16:34:00,63.6,39.5,29.91,East,96,0.0,0.0,41,0.00,,FEW120,0.00,VWS V14.01,2013-03-25 23:34:00,
2013-03-25 16:39:00,63.5,40.6,29.91,SSW,213,0.0,0.0,43,0.00,,FEW120,0.00,VWS V14.01,2013-03-25 23:39:00,
2013-03-25 16:44:00,63.8,40.3,29.91,SE,134,0.0,0.0,42,0.00,,SCT120,0.00,VWS V14.01,2013-03-25 23:44:00,
2013-03-25 16:49:00,64.0,39.2,29.91,East,98,2.0,0.0,40,0.00,,SCT120,0.00,VWS V14.01,2013-03-25 23:49:00,
2013-03-25 16:54:00,64.1,39.3,29.90,ESE,110,0.0,0.0,40,0.00,,SCT120,0.00,VWS V14.01,2013-03-25 23:54:00,
2013-03-25 16:59:00,64.8,41.2,29.90,SE,128,0.0,0.0,42,0.00,,SCT120,0.00,VWS V14.01,2013-03-25 23:59:00,
2013-03-25 17:04:00,65.5,39.9,29.90,ESE,103,1.0,0.0,39,0.00,,SCT100,0.00,VWS V14.01,2013-03-26 00:04:00,
2013-03-25 17:09:00,65.5,39.9,29.90,East,100,2.0,0.0,39,0.00,,SCT100,0.00,VWS V14.01,2013-03-26 00:09:00,
2013-03-25 17:14:00,64.4,39.6,29.90,ESE,111,0.0,0.0,40,0.00,,SCT100,0.00,VWS V14.01,2013-03-26 00:14:00,
2013-03-25 17:19:00,64.1,41.2,29.90,SSW,198,0.0,0.0,43,0.00,,SCT100,0.00,VWS V14.01,2013-03-26 00:19:00,
2013-03-25 17:24:00,63.7,41.4,29.90,SSW,196,0.0,0.0,44,0.00,,BKN100,0.00,VWS V14.01,2013-03-26 00:24:00,
2013-03-25 17:29:00,63.4,39.9,29.90,SW,232,0.0,0.0,42,0.00,,BKN100,0.00,VWS V14.01,2013-03-26 00:29:00,
2013-03-25 17:34:00,63.2,42.1,29.90,SW,232,0.0,0.0,46,0.00,,BKN100,0.00,VWS V14.01,2013-03-26 00:34:00,
2013-03-25 17:39:00,62.9,40.1,29.90,SSW,198,1.0,0.0,43,0.00,,BKN100,0.00,VWS V14.01,2013-03-26 00:39:00,
2013-03-25 17:44:00,62.5,39.7,29.90,South,191,4.0,0.0,43,0.00,,OVC100,0.00,VWS V14.01,2013-03-26 00:44:00,
2013-03-25 17:49:00,62.1,40.5,29.90,SSW,200,2.0,0.0,45,0.00,,OVC100,0.00,VWS V14.01,2013-03-26 00:49:00,
2013-03-25 17:54:00,62.0,40.4,29.90,SSW,200,2.0,0.0,45,0.00,,OVC100,0.00,VWS V14.01,2013-03-26 00:54:00,
2013-03-25 17:59:00,61.9,40.9,29.90,SSW,192,0.0,0.0,46,0.00,,OVC100,0.00,VWS V14.01,2013-03-26 00:59:00,
2013-03-25 18:04:00,61.9,40.3,29.90,SW,223,2.0,0.0,45,0.00,,OVC100,0.00,VWS V14.01,2013-03-26 01:04:00,
2013-03-25 18:09:00,61.8,40.8,29.90,South,187,1.0,0.0,46,0.00,,OVC100,0.00,VWS V14.01,2013-03-26 01:09:00,
2013-03-25 18:14:00,61.6,41.2,29.90,SE,134,1.0,0.0,47,0.00,,OVC100,0.00,VWS V14.01,2013-03-26 01:14:00,
2013-03-25 18:19:00,61.3,41.5,29.90,SSW,200,1.0,0.0,48,0.00,,OVC100,0.00,VWS V14.01,2013-03-26 01:19:00,
2013-03-25 18:24:00,61.0,41.2,29.90,SSW,202,1.0,0.0,48,0.00,,OVC100,0.00,VWS V14.01,2013-03-26 01:24:00,
2013-03-25 18:29:00,60.8,40.5,29.90,SSW,211,0.0,0.0,47,0.00,,OVC100,0.00,VWS V14.01,2013-03-26 01:29:00,
2013-03-25 18:34:00,60.6,40.8,29.90,ESE,109,0.0,0.0,48,0.00,,OVC100,0.00,VWS V14.01,2013-03-26 01:34:00,
2013-03-25 18:39:00,60.4,40.6,29.90,ESE,111,0.0,0.0,48,0.00,,OVC100,0.00,VWS V14.01,2013-03-26 01:39:00,
2013-03-25 18:44:00,60.3,41.6,29.90,South,176,0.0,0.0,50,0.00,,OVC100,0.00,VWS V14.01,2013-03-26 01:44:00,
2013-03-25 18:49:00,60.1,41.4,29.91,ESE,106,0.0,0.0,50,0.00,,OVC100,0.00,VWS V14.01,2013-03-26 01:49:00,
2013-03-25 18:54:00,59.7,41.6,29.91,ESE,106,2.0,0.0,51,0.00,,OVC100,0.00,VWS V14.01,2013-03-26 01:54:00,
2013-03-25 18:59:00,59.4,41.8,29.91,South,171,1.0,0.0,52,0.00,,OVC100,0.00,VWS V14.01,2013-03-26 01:59:00,
2013-03-25 19:04:00,59.0,41.9,29.90,ESE,119,0.0,0.0,53,0.00,,BKN100,0.00,VWS V14.01,2013-03-26 02:04:00,
2013-03-25 19:09:00,58.6,41.5,29.91,ESE,121,2.0,0.0,53,0.00,,BKN100,0.00,VWS V14.01,2013-03-26 02:09:00,
2013-03-25 19:14:00,58.5,41.5,29.91,ESE,115,0.0,0.0,53,0.00,,BKN100,0.00,VWS V14.01,2013-03-26 02:14:00,
2013-03-25 19:19:00,58.1,42.0,29.91,ESE,115,0.0,0.0,55,0.00,,BKN100,0.00,VWS V14.01,2013-03-26 02:19:00,
2013-03-25 19:24:00,57.6,41.6,29.91,ESE,116,0.0,0.0,55,0.00,,BKN100,0.00,VWS V14.01,2013-03-26 02:24:00,
2013-03-25 19:29:00,57.2,41.7,29.91,ESE,116,0.0,0.0,56,0.00,,BKN100,0.00,VWS V14.01,2013-03-26 02:29:00,
2013-03-25 19:34:00,56.8,41.3,29.91,SE,136,0.0,0.0,56,0.00,,BKN100,0.00,VWS V14.01,2013-03-26 02:34:00,
2013-03-25 19:39:00,56.5,41.5,29.91,SE,136,0.0,0.0,57,0.00,,BKN100,0.00,VWS V14.01,2013-03-26 02:39:00,
2013-03-25 19:44:00,56.2,41.2,29.92,SE,136,0.0,0.0,57,0.00,,OVC100,0.00,VWS V14.01,2013-03-26 02:44:00,
2013-03-25 19:49:00,56.0,41.0,29.92,SE,136,0.0,0.0,57,0.00,,OVC100,0.00,VWS V14.01,2013-03-26 02:49:00,
2013-03-25 19:54:00,55.8,41.3,29.92,SE,136,0.0,0.0,58,0.00,,OVC100,0.00,VWS V14.01,2013-03-26 02:54:00,
2013-03-25 19:59:00,55.5,41.4,29.92,SE,136,0.0,0.0,59,0.00,,OVC100,0.00,VWS V14.01,2013-03-26 02:59:00,
2013-03-25 20:04:00,55.3,40.8,29.91,SE,136,0.0,0.0,58,0.00,,OVC110,0.00,VWS V14.01,2013-03-26 03:04:00,
2013-03-25 20:09:00,55.2,40.7,29.92,SE,138,1.0,0.0,58,0.00,,OVC110,0.00,VWS V14.01,2013-03-26 03:09:00,
2013-03-25 20:14:00,55.0,41.0,29.92,SE,137,0.0,0.0,59,0.00,,OVC110,0.00,VWS V14.01,2013-03-26 03:14:00,
2013-03-25 20:19:00,54.8,40.8,29.92,East,84,1.0,0.0,59,0.00,,OVC110,0.00,VWS V14.01,2013-03-26 03:19:00,
2013-03-25 20:24:00,54.6,41.0,29.92,South,188,0.0,0.0,60,0.00,,OVC110,0.00,VWS V14.01,2013-03-26 03:24:00,
2013-03-25 20:29:00,54.4,41.2,29.93,South,188,0.0,0.0,61,0.00,,OVC110,0.00,VWS V14.01,2013-03-26 03:29:00,
2013-03-25 20:34:00,54.1,41.0,29.92,SE,145,0.0,0.0,61,0.00,,OVC110,0.00,VWS V14.01,2013-03-26 03:34:00,
2013-03-25 20:39:00,53.7,41.0,29.93,SSE,148,0.0,0.0,62,0.00,,OVC110,0.00,VWS V14.01,2013-03-26 03:39:00,
2013-03-25 20:44:00,53.6,40.5,29.93,SW,236,0.0,0.0,61,0.00,,OVC110,0.00,VWS V14.01,2013-03-26 03:44:00,
2013-03-25 20:49:00,53.4,40.3,29.93,ESE,102,3.0,0.0,61,0.00,,OVC110,0.00,VWS V14.01,2013-03-26 03:49:00,
2013-03-25 20:54:00,53.1,40.8,29.93,NW,319,1.0,0.0,63,0.00,,OVC110,0.00,VWS V14.01,2013-03-26 03:54:00,
2013-03-25 20:59:00,52.8,40.6,29.93,East,98,0.0,0.0,63,0.00,,OVC110,0.00,VWS V14.01,2013-03-26 03:59:00,
2013-03-25 21:00:00,52.8,41.0,29.93,SE,134,0.0,0.0,64,0.00,,OVC110,0.00,VWS V14.01,2013-03-26 04:00:00,
2013-03-25 21:05:00,52.6,40.8,29.93,East,99,0.0,0.0,64,0.00,,OVC110,0.00,VWS V14.01,2013-03-26 04:05:00,
2013-03-25 21:10:00,52.3,40.9,29.94,East,98,1.0,0.0,65,0.00,,OVC110,0.00,VWS V14.01,2013-03-26 04:10:00,
2013-03-25 21:15:00,52.0,40.6,29.94,SSW,194,0.0,0.0,65,0.00,,OVC110,0.00,VWS V14.01,2013-03-26 04:15:00,
2013-03-25 21:20:00,51.8,40.8,29.94,SE,127,0.0,0.0,66,0.00,,OVC110,0.00,VWS V14.01,2013-03-26 04:20:00,
2013-03-25 21:25:00,51.7,40.7,29.94,ESE,116,2.0,0.0,66,0.00,,BKN110,0.00,VWS V14.01,2013-03-26 04:25:00,
2013-03-25 21:30:00,51.5,40.9,29.94,ESE,107,2.0,0.0,67,0.00,,BKN110,0.00,VWS V14.01,2013-03-26 04:30:00,
2013-03-25 21:35:00,51.3,40.7,29.94,ESE,109,0.0,0.0,67,0.00,,BKN110,0.00,VWS V14.01,2013-03-26 04:35:00,
2013-03-25 21:40:00,51.1,40.5,29.94,ESE,109,0.0,0.0,67,0.00,,BKN110,0.00,VWS V14.01,2013-03-26 04:40:00,
2013-03-25 21:45:00,51.0,40.4,29.94,ESE,113,3.0,0.0,67,0.00,,OVC120,0.00,VWS V14.01,2013-03-26 04:45:00,
2013-03-25 21:50:00,51.0,40.4,29.95,East,101,3.0,0.0,67,0.00,,OVC120,0.00,VWS V14.01,2013-03-26 04:50:00,
2013-03-25 21:55:00,50.9,40.3,29.95,ESE,103,3.0,0.0,67,0.00,,OVC120,0.00,VWS V14.01,2013-03-26 04:55:00,
2013-03-25 22:00:00,50.9,40.3,29.95,NE,53,1.0,0.0,67,0.00,,OVC120,0.00,VWS V14.01,2013-03-26 05:00:00,
2013-03-25 22:05:00,50.7,40.5,29.95,ESE,109,1.0,0.0,68,0.00,,OVC120,0.00,VWS V14.01,2013-03-26 05:05:00,
2013-03-25 22:10:00,50.4,40.6,29.95,East,94,1.0,0.0,69,0.00,,OVC120,0.00,VWS V14.01,2013-03-26 05:10:00,
2013-03-25 22:15:00,50.3,40.5,29.95,East,99,1.0,0.0,69,0.00,,OVC120,0.00,VWS V14.01,2013-03-26 05:15:00,
2013-03-25 22:20:00,50.2,40.4,29.95,East,101,1.0,0.0,69,0.00,,OVC120,0.00,VWS V14.01,2013-03-26 05:20:00,
2013-03-25 22:25:00,50.1,40.7,29.96,East,91,2.0,0.0,70,0.00,,OVC120,0.00,VWS V14.01,2013-03-26 05:25:00,
2013-03-25 22:30:00,50.0,40.6,29.96,ESE,105,0.0,0.0,70,0.00,,OVC120,0.00,VWS V14.01,2013-03-26 05:30:00,
2013-03-25 22:35:00,50.0,40.6,29.96,East,92,2.0,0.0,70,0.00,,OVC120,0.00,VWS V14.01,2013-03-26 05:35:00,
2013-03-25 22:40:00,49.9,40.5,29.96,East,93,0.0,0.0,70,0.00,,OVC120,0.00,VWS V14.01,2013-03-26 05:40:00,
2013-03-25 22:45:00,49.9,40.5,29.96,East,93,0.0,0.0,70,0.00,,OVC090,0.00,VWS V14.01,2013-03-26 05:45:00,
2013-03-25 22:50:00,49.8,40.4,29.96,ESE,111,0.0,0.0,70,0.00,,OVC090,0.00,VWS V14.01,2013-03-26 05:50:00,
2013-03-25 22:55:00,49.8,40.4,29.96,ESE,110,0.0,0.0,70,0.00,,OVC090,0.00,VWS V14.01,2013-03-26 05:55:00,
2013-03-25 23:00:00,49.9,40.5,29.96,East,100,3.0,0.0,70,0.00,,OVC090,0.00,VWS V14.01,2013-03-26 06:00:00,
2013-03-25 23:05:00,49.9,40.5,29.97,East,89,0.0,0.0,70,0.00,,OVC080,0.00,VWS V14.01,2013-03-26 06:05:00,
2013-03-25 23:10:00,49.9,40.5,29.97,ESE,102,2.0,0.0,70,0.00,,OVC080,0.00,VWS V14.01,2013-03-26 06:10:00,
2013-03-25 23:15:00,49.8,40.4,29.97,ESE,109,4.0,0.0,70,0.00,,OVC080,0.00,VWS V14.01,2013-03-26 06:15:00,
2013-03-25 23:20:00,49.7,40.7,29.97,East,80,0.0,0.0,71,0.00,,OVC080,0.00,VWS V14.01,2013-03-26 06:20:00,
2013-03-25 23:25:00,49.7,40.7,29.97,East,101,0.0,0.0,71,0.00,,OVC070,0.00,VWS V14.01,2013-03-26 06:25:00,
2013-03-25 23:30:00,49.7,40.7,29.97,East,79,1.0,0.0,71,0.00,,OVC070,0.00,VWS V14.01,2013-03-26 06:30:00,
2013-03-25 23:35:00,49.6,40.6,29.97,ESE,109,2.0,0.0,71,0.00,,OVC070,0.00,VWS V14.01,2013-03-26 06:35:00,
2013-03-25 23:40:00,49.5,40.5,29.98,ENE,76,1.0,0.0,71,0.00,,OVC070,0.00,VWS V14.01,2013-03-26 06:40:00,
2013-03-25 23:45:00,49.5,40.5,29.98,ESE,111,0.0,0.0,71,0.00,,OVC070,0.00,VWS V14.01,2013-03-26 06:45:00,
2013-03-25 23:50:00,49.4,40.8,29.98,NE,51,2.0,0.0,72,0.00,,OVC070,0.00,VWS V14.01,2013-03-26 06:50:00,
2013-03-25 23:55:00,49.4,40.8,29.98,ESE,107,0.0,0.0,72,0.00,,OVC070,0.00,VWS V14.01,2013-03-26 06:55:00,